Satellite: MET-3/5
Catalog number: 21655
Epoch time:      10181.70265413
Element set:     850
Inclination:      082.5591 deg
RA of node:       299.0856 deg
Eccentricity:    0.0012543
Arg of perigee:   319.7892 deg
Mean anomaly:     040.2287 deg
Mean motion:   13.17020882 rev/day
Decay rate:        5.1e-07 rev/day^2
Epoch rev:           90745
Checksum:              299

Satellite: MET-2/21
Catalog number: 22782
Epoch time:      10182.53730931
Element set:     817
Inclination:      082.5468 deg
RA of node:       241.0568 deg
Eccentricity:    0.0022552
Arg of perigee:   006.9608 deg
Mean anomaly:     353.1865 deg
Mean motion:   13.83645476 rev/day
Decay rate:        4.0e-08 rev/day^2
Epoch rev:           85006
Checksum:              302

Satellite: OKEAN-4
Catalog number: 23317
Epoch time:      10181.68277031
Element set:    0272
Inclination:      082.5410 deg
RA of node:       341.2596 deg
Eccentricity:    0.0021528
Arg of perigee:   193.2978 deg
Mean anomaly:     166.7695 deg
Mean motion:   14.82830692 rev/day
Decay rate:       2.43e-06 rev/day^2
Epoch rev:           84845
Checksum:              314

Satellite: NOAA-14
Catalog number: 23455
Epoch time:      10181.80090241
Element set:    0108
Inclination:      098.8787 deg
RA of node:       262.4503 deg
Eccentricity:    0.0009010
Arg of perigee:   192.2069 deg
Mean anomaly:     167.8874 deg
Mean motion:   14.13788742 rev/day
Decay rate:       -6.0e-08 rev/day^2
Epoch rev:           79942
Checksum:              312

Satellite: NOAA-15
Catalog number: 25338
Epoch time:      10181.56661767
Element set:    0429
Inclination:      098.6188 deg
RA of node:       168.2506 deg
Eccentricity:    0.0011353
Arg of perigee:   040.6947 deg
Mean anomaly:     319.5084 deg
Mean motion:   14.24837581 rev/day
Decay rate:       1.77e-06 rev/day^2
Epoch rev:           63065
Checksum:              326

Satellite: RESURS
Catalog number: 25394
Epoch time:      10181.62602865
Element set:    0543
Inclination:      098.3043 deg
RA of node:       198.9741 deg
Eccentricity:    0.0001382
Arg of perigee:   139.9351 deg
Mean anomaly:     220.1926 deg
Mean motion:   14.24204808 rev/day
Decay rate:        3.4e-07 rev/day^2
Epoch rev:           62226
Checksum:              282

Satellite: FENGYUN1
Catalog number: 25730
Epoch time:      10181.45020423
Element set:    0078
Inclination:      098.7856 deg
RA of node:       146.0590 deg
Eccentricity:    0.0020706
Arg of perigee:   231.5343 deg
Mean anomaly:     128.4021 deg
Mean motion:   14.08187787 rev/day
Decay rate:       -9.0e-08 rev/day^2
Epoch rev:           57355
Checksum:              283

Satellite: OKEAN-0
Catalog number: 25860
Epoch time:      10182.47147553
Element set:      34
Inclination:      097.8324 deg
RA of node:       154.6837 deg
Eccentricity:    0.0001786
Arg of perigee:   061.6194 deg
Mean anomaly:     298.5188 deg
Mean motion:   14.73646567 rev/day
Decay rate:        2.1e-07 rev/day^2
Epoch rev:           58900
Checksum:              318

Satellite: NOAA-16
Catalog number: 26536
Epoch time:      10181.54280210
Element set:    0906
Inclination:      099.1693 deg
RA of node:       199.3259 deg
Eccentricity:    0.0009728
Arg of perigee:   302.6359 deg
Mean anomaly:     057.3913 deg
Mean motion:   14.12565154 rev/day
Decay rate:        9.3e-07 rev/day^2
Epoch rev:           50371
Checksum:              307

Satellite: NOAA-17
Catalog number: 27453
Epoch time:      10181.55570065
Element set:    0905
Inclination:      098.4300 deg
RA of node:       231.4617 deg
Eccentricity:    0.0012807
Arg of perigee:   098.0956 deg
Mean anomaly:     262.1699 deg
Mean motion:   14.24169155 rev/day
Decay rate:       -2.4e-07 rev/day^2
Epoch rev:           41660
Checksum:              298

Satellite: NOAA-18
Catalog number: 28654
Epoch time:      10181.55722412
Element set:    0389
Inclination:      098.9502 deg
RA of node:       127.7832 deg
Eccentricity:    0.0014753
Arg of perigee:   019.7202 deg
Mean anomaly:     340.4548 deg
Mean motion:   14.11367551 rev/day
Decay rate:       2.17e-06 rev/day^2
Epoch rev:           26332
Checksum:              295

Satellite: NOAA-19
Catalog number: 33591
Epoch time:      10181.54811956
Element set:    0586
Inclination:      098.7885 deg
RA of node:       123.3850 deg
Eccentricity:    0.0013091
Arg of perigee:   250.8245 deg
Mean anomaly:     109.1506 deg
Mean motion:   14.11063142 rev/day
Decay rate:       1.32e-06 rev/day^2
Epoch rev:           07179
Checksum:              292

/EX
SB KEPS @ AMSAT  $ORB10182.M
Orbital Elements  10182.MISC

HR AMSAT ORBITAL ELEMENTS FOR MANNED AND MISCELLANEOUS SATELLITES
FROM WA5QGD FORT WORTH,TX July 1, 2010
Send Subscribe/unsubscribe to KEPS at http://www.amsat.org/mailman/listinfo/kep
BID: ORB10182.M
TO ALL RADIO AMATEURS BT

Satellite: HUBBLE
Catalog number: 20580
Epoch time:      10182.34335461
Element set:     594
Inclination:      028.4682 deg
RA of node:       147.4498 deg
Eccentricity:    0.0002892
Arg of perigee:   358.8779 deg
Mean anomaly:     001.2267 deg
Mean motion:   15.00992347 rev/day
Decay rate:       2.34e-06 rev/day^2
Epoch rev:           90688
Checksum:              316

